Hourly Data Report for December 10, 2017

All times are specified in Local Standard Time (LST). Add 1 hour to adjust for Daylight Saving Time where and when it is observed.

LA RONGE A
SASKATCHEWAN

55°09'05.000" N
105°16'01.000" W
379.20 m
4064155
71922
YVC

Download Data

Hourly Data (December 2017)
Hourly Data Report for December 10, 2017
Temp Definition
°C
Dew Point Temp Definition
°C
Rel Hum Definition
%
Wind Dir Definition
10's deg

Wind Spd Definition
km/h
Visibility Definition
km
Stn Press Definition
kPa
Hmdx Definition


Wind Chill Definition


Weather Definition


TIME
00:00 Legend Double Dagger -7.6 -9.2 88 5 10 24.1 96.87   -12 Mostly Cloudy
01:00 Legend Double Dagger -7.6 -9.3 88 5 10 24.1 96.89   -12 LegendNANA
02:00 Legend Double Dagger -7.5 -9.2 88 36 2 24.1 96.87   -9 LegendNANA
03:00 Legend Double Dagger -7.1 -9.1 86 36 3 24.1 96.89   -9 Cloudy
04:00 Legend Double Dagger -7.1 -8.9 87 4 7 24.1 96.90   -11 LegendNANA
05:00 Legend Double Dagger -7.9 -9.5 88 5 11 24.1 96.92   -13 LegendNANA
06:00 Legend Double Dagger -8.2 -9.6 90 18 5 24.1 96.86   -11 Mostly Cloudy
07:00 Legend Double Dagger -10.1 -11.4 90 36 3 24.1 96.86   -12 LegendNANA
08:00 Legend Double Dagger -11.6 -12.8 91 22 4 24.1 96.81   -14 LegendNANA
09:00 Legend Double Dagger -11.2 -12.3 92 4 4 24.1 96.78   -14 Mostly Cloudy
10:00 Legend Double Dagger -10.4 -11.4 92   0 24.1 96.72     LegendNANA
11:00 Legend Double Dagger -8.0 -9.2 91 18 8 24.1 96.68   -12 LegendNANA
12:00 Legend Double Dagger -6.4 -7.8 90 18 5 24.1 96.62   -9 Cloudy
13:00 Legend Double Dagger -4.4 -5.6 91 20 4 4.8 96.48   -6 Snow
14:00 Legend Double Dagger -2.6 -3.3 94 19 4 1.6 96.33   -4 Snow
15:00 Legend Double Dagger -2.5 -3.0 96 36 3 1.2 96.19   -4 Snow
16:00 Legend Double Dagger -1.9 -2.4 97 36 2 0.8 96.20   -3 Moderate Snow
17:00 Legend Double Dagger -0.3 -0.6 97 33 13 1.2 96.27   -4 Snow
18:00 Legend Double Dagger -0.9 -1.6 95 34 18 2.4 96.41   -6 Snow
19:00 Legend Double Dagger -1.6 -3.2 89 35 16 9.7 96.57   -7 Snow
20:00 Legend Double Dagger -2.2 -4.0 87 33 12 24.1 96.83   -6 Snow
21:00 Legend Double Dagger -2.5 -4.4 87 34 17 24.1 97.05   -8 Snow
22:00 Legend Double Dagger -2.6 -4.5 87 36 12 24.1 97.22   -7 Snow
23:00 Legend Double Dagger -5.0 -7.0 86 2 17 24.1 97.40   -11 Snow

Notes on Data Quality.

Legend

  • E = Estimated
  • M = Missing
  • NA = Not Available
  • ‡ = Partner data that is not subject to review by the National Climate Archives
Date modified: